ARIANE 5 DEB (SYLDA), 32255

Orbit data source: Space-Track

ARIANE 5 DEB (SYLDA), 32255 is space debris in HEO originally from a launch on Fri, 05 Oct 2007 UTC launched from the French Guiana (FRGUI). Debris objects in space refer to the collection of defunct objects orbiting the Earth. Examples of debris include non-operational satellites, rocket bodies, and fragments generated from explosions, collisions, or faulty payload assembly.

Loading next visibility...
Identifier
32255, 2007-044D
Orbit
HEO
Last TLE update
1 day ago
Origin
Manufacturer
EADS/Bremen
Mission
Spacecraft
Bus & Motor
SYLDA 5, Unknown motor
Mass
440 kg wet, 440 kg dry
Launch date (UTC)
2007-10-05 (18 years ago)
Launch vehicle
Unknown
Launch site
French Guiana (FRGUI)
Object type
Payload
Rocket body
Debris
Shape & HBR
Cyl, 5.2 m
Radar Cross Section
26.330 m², Large (>1 m²)

Expand to show TLE details & history

TLE from 1 day ago
0 ARIANE 5 DEB (SYLDA)
1 32255U 07044D   25181.28824074 -.00000024  00000-0  95432-3 0  9997
2 32255   3.7856 198.2721 7172582  55.5254  91.8734  2.26734351146518
Epoch: 2025-06-30T06:55Z
TLE epoch observation values (Epoch: 2025-06-30T06:55:03.999Z)
Latitude
-2.00723°
Longitude
27.76713°
Altitude
28,250.599 km
Speed
2.595 km/s
True Right ascension
03h 20m 32s
True Declination
-2° 00' 17"
Sunlit
Object was in daylight at epoch
Visualization orbit readout
Latitude
-3.75569°
Longitude
80.37112°
Altitude
25,770.32 km
Speed
2.917 km/s
Apparent Right ascension
07h 09m 31s
Apparent Declination
-9° 41' 51"
Sunlit
Object is in daylight
Visualization observer readout
Local Sidereal Time
21:17:35
Azimuth
52.082° ENE
Elevation
-48.514°
Doppler factor
1
Orbital elements
Apogee altitude
35,660.948 km
Perigee altitude
543.482 km
Semi-major axis
24,480.352 km
Eccentricity
0.71726
Inclination
3.7856°
RAAN
198.2721°
Arg. of periapsis
55.5254°
True anomaly
Unknown
Mean anomaly
91.8734°
Eccentric anomaly
Unknown
Mean motion
0.56665 °/min
Orbital period
635.31 mins
BSTAR
0.00095432
Loading maneuver chart data...
Loading SW <> Apogee altitude chart data...
Loading historical data...
Loading historical data...
Loading historical data...
Loading historical data...
Loading historical data...
Loading historical data...
Loading historical data...
Other satellites on launch #44 in the year 2007 (2007-10-05 UTC)

ARIANE 5 DEB (SYLDA) Visibility forecast

Observer location: undefined°, undefined°

Span
Click to sort rows by Start time (UTC) header in descending order
Start Az.
Max El. time (UTC)
Max El. Az.
Max El.
End time (UTC)
End Az.
587 mins2025-07-01 12:21:16.517Z216.483° SW2025-07-01 17:05:16.517Z177.524° S32.905°2025-07-01 22:08:16.517Z150.24° SSE
13 mins2025-07-02 09:26:16.517Z168.379° S2025-07-02 09:35:16.517Z143.811° SSE13.983°2025-07-02 09:39:16.517Z137.426° SSE
|